Wind_Speed
5 5 6 6 5 5 4 4 4 4 4 4 3 3 4 5 5 5 5 5 4 4 4 4 3 2 2 2 3 4 5 7 9 12 14 16 19 21 22 25 28 31 33 35
4 4 4 4 4 4 4 4 4 3 2 1 2 2 3 3 4 5 4 4 3 3 2 1 1 0 1 2 3 5 6 8 9 11 14 16 19 21 23 26 28 30 32 34
3 3 2 2 2 2 2 1 1 0 1 1 1 1 1 2 3 3 3 3 2 1 1 0 1 2 2 3 4 6 8 10 11 13 14 16 19 21 24 27 29 32 34 36
1 1 0 1 1 1 0 1 1 1 2 2 2 2 2 1 0 0 0 1 1 2 3 3 3 4 5 5 6 7 9 11 12 14 16 18 20 22 24 27 30 33 36 38
2 2 1 1 1 1 1 1 2 2 2 2 2 2 2 2 2 2 3 4 5 5 6 6 7 7 7 8 10 11 12 13 15 17 19 21 22 24 26 29 32 35 38 40
4 4 3 3 2 2 1 1 1 2 3 3 3 3 3 3 4 5 5 5 6 7 7 8 8 9 10 12 13 14 15 16 18 21 22 24 26 27 29 32 34 36 38 40
6 6 5 6 5 5 4 4 4 5 5 6 6 6 7 6 7 7 7 8 8 9 10 10 10 12 13 14 15 17 18 20 22 24 25 27 30 32 33 34 36 37 39 42
7 8 8 8 8 8 7 7 7 7 7 8 8 9 10 10 10 10 11 11 12 13 13 14 15 16 17 19 20 21 23 25 26 27 28 30 31 32 34 35 37 39 41 43
7 8 8 9 9 10 10 10 10 10 10 10 10 11 12 13 13 14 14 15 16 17 17 18 19 21 22 23 24 25 27 28 29 30 31 32 34 35 37 39 41 42 44 45
9 10 10 11 11 11 11 12 12 12 12 13 13 14 15 16 16 17 18 19 20 20 21 22 23 24 24 25 27 28 29 31 33 34 35 36 38 39 41 42 44 45 46 47
12 13 13 13 13 14 14 15 15 15 16 16 16 16 17 18 18 19 20 20 21 22 23 24 25 26 27 28 30 31 33 34 35 36 38 39 40 42 43 45 46 48 49 49
12 13 14 14 15 16 16 17 17 18 18 18 18 18 19 19 20 20 21 22 23 24 25 26 27 28 30 31 32 33 35 36 37 38 39 41 42 44 45 47 48 50 51 51
15 16 16 16 16 16 16 17 18 18 19 20 20 21 21 22 22 23 23 24 25 27 27 28 28 30 31 33 34 35 36 38 39 40 41 43 44 45 46 47 49 51 52 52
19 19 19 19 19 20 20 20 21 21 22 22 23 23 24 24 25 25 26 27 28 29 30 31 32 33 34 35 35 37 39 40 41 43 44 45 46 47 48 49 50 51 51 52
23 23 23 23 24 24 24 25 25 26 26 26 27 27 27 28 28 28 29 30 32 32 33 34 35 36 36 37 38 39 41 42 43 45 46 46 47 49 50 50 50 51 50 49
25 25 26 27 27 28 28 28 28 29 29 30 30 30 31 31 31 32 33 33 34 35 36 37 38 38 39 40 41 42 43 44 45 46 47 48 49 50 50 51 51 50 49 48
27 27 28 29 30 31 31 31 31 31 32 32 33 33 33 33 34 34 35 36 36 37 38 39 40 41 41 42 43 44 45 46 47 48 49 49 50 51 51 51 51 50 49 48
30 30 31 31 31 32 33 34 34 35 35 34 35 35 35 36 36 36 37 37 38 39 40 40 41 42 43 44 44 45 46 46 47 48 49 50 51 51 51 51 50 49 48 47
34 34 34 34 34 33 34 35 36 37 37 37 37 37 38 38 38 38 39 39 40 41 41 42 43 43 44 45 45 46 46 47 48 49 49 50 50 51 50 50 49 48 47 46
36 37 37 37 36 36 36 37 38 39 39 39 40 40 40 40 40 40 41 41 42 43 43 44 44 44 45 45 46 46 47 47 48 49 50 50 50 50 50 49 48 47 46 45
37 37 37 37 37 37 38 38 39 40 41 41 41 41 41 41 42 42 42 43 43 44 45 45 45 45 46 46 46 47 47 48 49 49 49 50 50 49 49 48 47 47 46 44
39 39 39 39 39 39 40 40 41 41 42 42 41 42 42 43 43 43 43 44 44 45 45 45 46 46 46 47 47 47 48 49 49 49 49 49 49 49 48 48 47 46 45 43
38 38 39 40 40 40 41 41 42 42 42 42 41 42 42 43 43 43 43 44 44 45 45 46 46 46 47 47 47 48 48 49 49 48 48 48 48 48 48 47 46 45 44 41
38 38 39 40 41 42 42 42 42 42 42 42 42 42 42 42 43 43 43 44 44 44 45 45 45 46 47 47 47 48 48 48 48 48 47 47 47 47 47 46 45 44 42 39
38 39 39 40 41 42 42 42 42 42 43 43 43 43 43 43 43 43 44 44 44 44 44 44 45 46 47 47 47 48 48 47 47 46 46 46 46 46 45 44 43 41 39 37
38 40 41 42 43 43 43 43 43 42 42 43 43 43 44 44 43 43 44 44 44 44 44 44 45 46 46 47 47 47 46 46 45 45 45 45 44 44 43 42 40 39 37 34
40 41 42 43 44 45 45 44 44 44 43 43 43 43 43 43 43 43 43 43 43 43 43 44 45 46 46 45 45 45 44 44 44 43 43 43 42 41 40 39 37 36 34 31
Wind_Direction
96 89 91 94 99 121 132 139 133 122 109 99 95 90 82 85 81 93 96 97 106 112 100 98 106 113 134 174 212 231 253 259 252 251 254 258 261 262 262 265 268 271 272 274
102 97 89 85 94 114 118 121 122 127 121 113 93 84 71 73 82 91 104 106 113 114 114 99 77 352 256 240 255 259 260 270 266 262 265 269 270 268 270 272 274 276 278 280
108 104 91 76 87 110 122 117 99 102 212 265 257 284 3 43 68 79 91 102 107 111 137 307 327 295 286 288 286 280 281 286 288 286 283 280 280 279 278 278 281 281 282 284
146 170 60 87 56 59 326 267 282 291 290 280 270 268 271 261 234 170 272 289 275 274 286 280 286 289 287 291 299 297 298 300 296 295 291 289 288 287 287 287 288 288 288 288
230 238 229 237 282 311 335 277 260 272 282 293 300 294 292 287 285 284 288 291 294 288 285 287 292 296 292 295 302 304 302 301 300 298 295 295 294 294 294 294 293 293 293 293
245 250 243 233 249 278 308 315 272 269 275 287 293 296 297 300 304 301 300 298 296 297 297 294 294 298 301 301 300 302 303 302 300 298 296 296 295 295 295 296 297 297 297 298
248 246 245 251 260 271 280 282 279 282 280 279 280 280 286 290 294 297 300 303 302 301 302 300 298 298 299 302 302 302 301 300 301 299 297 298 298 298 298 298 299 300 300 299
247 252 257 260 266 270 274 275 276 275 277 277 274 274 279 283 288 290 292 296 298 298 297 297 298 300 300 301 302 302 302 302 302 300 300 300 299 300 301 301 302 302 302 301
251 257 259 262 266 269 271 273 275 273 274 275 276 278 280 281 282 285 288 291 293 293 294 296 297 298 299 300 302 303 304 304 304 303 303 303 302 303 304 304 304 304 304 303
260 263 266 268 268 270 272 275 275 273 274 276 278 279 280 280 281 284 286 288 290 292 294 295 297 298 299 300 302 304 305 306 306 306 305 305 304 304 305 305 306 305 305 304
263 264 267 271 273 274 276 276 276 276 277 278 279 280 281 280 282 285 288 290 291 291 292 294 296 298 300 301 302 304 305 306 306 306 306 305 305 305 305 305 306 306 305 305
266 267 269 273 276 277 277 276 275 274 275 276 277 279 281 283 284 286 288 290 292 293 293 293 294 296 298 300 302 303 304 305 306 306 306 306 306 306 306 307 307 307 306 305
267 269 272 274 276 279 280 280 279 277 276 277 279 280 282 284 285 286 288 290 292 293 294 295 297 298 299 300 301 303 304 306 307 307 307 307 308 308 308 309 309 308 307 307
266 270 274 275 276 278 279 280 280 279 279 279 280 281 283 284 285 286 288 290 292 294 294 295 297 299 301 302 303 304 306 307 308 309 309 308 309 309 310 310 310 310 309 308
268 270 273 275 276 277 278 280 280 280 279 279 280 281 282 283 284 286 288 289 291 292 293 295 297 298 300 301 302 304 306 307 308 309 309 310 310 311 311 312 311 311 310 309
271 273 274 275 276 276 278 279 280 280 280 279 280 281 282 283 285 287 288 290 291 292 293 294 296 298 299 300 302 304 306 307 308 309 310 311 311 312 312 313 312 312 310 310
275 277 278 279 278 278 278 279 279 279 280 280 280 281 282 284 285 286 288 290 291 293 293 294 295 296 298 299 301 303 305 307 308 309 311 311 312 313 313 313 313 312 311 310
275 277 278 280 281 280 279 279 280 280 279 279 280 281 282 283 285 286 287 289 291 292 294 294 295 296 297 299 300 302 305 306 308 310 311 312 313 313 313 314 314 313 312 311
276 278 280 281 282 282 282 281 280 280 281 280 280 281 281 282 284 286 287 288 290 292 294 294 295 296 297 299 300 302 304 306 308 309 311 312 313 314 314 315 315 314 313 312
278 279 280 281 282 283 283 283 282 281 281 280 280 281 281 282 283 285 287 288 289 292 293 294 295 296 297 299 300 302 304 306 308 309 310 311 313 314 314 315 315 314 313 313
280 280 280 280 281 283 284 284 283 282 282 281 280 280 281 282 283 285 287 288 289 291 293 294 295 297 298 299 300 302 304 305 307 309 310 311 312 313 314 314 314 314 313 313
280 281 281 281 282 283 284 284 284 283 282 281 280 280 280 282 284 286 288 289 290 291 292 294 295 297 298 299 301 302 304 305 307 308 310 311 312 313 314 314 314 314 314 313
281 282 282 282 282 284 285 285 284 283 283 282 281 281 281 282 284 286 288 289 291 292 293 294 295 297 298 300 301 302 304 305 307 308 310 311 312 313 314 314 314 315 315 313
282 283 284 284 284 285 286 286 285 285 283 282 281 281 281 282 284 286 288 290 291 292 293 295 296 298 299 300 301 302 304 305 307 308 310 311 312 313 314 314 315 316 315 313
282 284 286 287 287 287 288 288 287 285 284 282 281 280 281 282 284 286 288 290 291 291 292 294 296 298 299 300 301 303 304 305 307 308 310 311 313 314 315 316 317 316 315 313
284 286 287 288 288 288 288 288 287 286 284 284 282 281 281 282 285 286 288 289 290 290 291 293 295 297 299 300 302 303 304 306 307 308 310 312 313 314 315 317 317 317 315 313
284 286 288 289 289 288 288 287 287 286 285 285 284 282 282 283 285 287 288 288 289 290 291 293 295 297 299 301 302 304 305 306 307 309 311 312 313 314 316 317 318 318 316 315
Height
5638 5638 5638 5638 5638 5638 5638 5638 5639 5639 5639 5639 5638 5638 5637 5636 5635 5634 5633 5633 5632 5632 5632 5632 5632 5632 5632 5633 5634 5635 5635 5636 5637 5638 5639 5641 5642 5643 5644 5645 5646 5646 5646 5646
5640 5640 5640 5640 5640 5640 5640 5640 5640 5640 5641 5640 5640 5639 5639 5638 5637 5636 5636 5635 5635 5634 5634 5634 5634 5634 5634 5634 5634 5634 5634 5634 5635 5635 5636 5636 5637 5637 5637 5638 5638 5637 5636 5635
5642 5642 5642 5643 5643 5642 5642 5642 5642 5642 5642 5641 5641 5641 5640 5640 5639 5638 5638 5637 5637 5636 5636 5636 5635 5635 5634 5634 5633 5633 5633 5633 5632 5632 5632 5631 5631 5631 5631 5630 5630 5628 5627 5625
5644 5645 5645 5647 5644 5644 5643 5643 5643 5642 5642 5642 5642 5641 5641 5641 5640 5640 5639 5638 5638 5637 5636 5636 5636 5635 5634 5633 5633 5632 5631 5630 5629 5629 5628 5627 5625 5624 5624 5622 5621 5619 5617 5614
5645 5645 5645 5646 5645 5644 5644 5644 5643 5643 5643 5643 5642 5642 5642 5641 5641 5640 5640 5639 5638 5637 5636 5636 5635 5634 5633 5632 5631 5630 5628 5627 5625 5624 5623 5621 5619 5618 5616 5614 5612 5609 5606 5602
5645 5645 5646 5648 5646 5645 5646 5645 5644 5643 5643 5643 5643 5643 5643 5641 5641 5640 5639 5638 5637 5636 5635 5634 5633 5632 5631 5630 5628 5626 5625 5623 5621 5619 5617 5615 5613 5610 5608 5605 5602 5599 5595 5591
5645 5645 5646 5646 5646 5646 5647 5647 5645 5644 5643 5643 5643 5643 5642 5641 5640 5639 5638 5637 5636 5635 5634 5632 5631 5630 5628 5626 5625 5623 5620 5618 5616 5613 5610 5608 5605 5602 5599 5595 5592 5588 5584 5580
5644 5645 5647 5645 5645 5645 5645 5644 5644 5643 5643 5642 5642 5641 5640 5640 5639 5638 5637 5636 5634 5633 5631 5630 5628 5626 5624 5622 5620 5618 5615 5612 5609 5606 5603 5599 5596 5592 5589 5585 5581 5577 5572 5567
5644 5646 5644 5643 5643 5643 5643 5642 5642 5641 5641 5641 5640 5639 5638 5637 5636 5635 5634 5633 5631 5629 5627 5625 5623 5621 5619 5617 5614 5612 5608 5605 5601 5598 5594 5590 5586 5582 5578 5574 5569 5564 5559 5554
5642 5643 5642 5641 5640 5640 5640 5640 5639 5639 5638 5638 5637 5636 5635 5634 5633 5631 5630 5628 5627 5625 5623 5620 5618 5616 5613 5611 5608 5605 5601 5597 5593 5589 5584 5580 5575 5571 5566 5562 5557 5551 5546 5540
5639 5640 5639 5639 5638 5638 5637 5637 5636 5636 5635 5634 5633 5632 5631 5630 5628 5627 5625 5623 5621 5619 5617 5615 5612 5610 5607 5604 5601 5597 5593 5588 5584 5579 5574 5570 5565 5559 5554 5549 5543 5537 5531 5525
5636 5636 5636 5636 5635 5634 5634 5633 5632 5632 5631 5630 5629 5628 5627 5625 5623 5622 5620 5618 5616 5614 5611 5609 5606 5603 5600 5596 5593 5589 5584 5580 5574 5569 5564 5559 5554 5548 5541 5535 5529 5522 5515 5509
5632 5632 5631 5631 5630 5630 5629 5629 5628 5627 5626 5625 5624 5623 5621 5619 5618 5616 5614 5612 5610 5607 5605 5602 5599 5596 5592 5588 5584 5580 5575 5570 5565 5559 5554 5548 5542 5536 5530 5524 5516 5509 5502 5495
5626 5627 5627 5626 5626 5625 5624 5624 5623 5622 5621 5620 5618 5616 5615 5613 5611 5609 5607 5605 5603 5600 5597 5594 5591 5588 5584 5580 5575 5571 5566 5560 5554 5548 5543 5537 5531 5525 5518 5512 5505 5497 5489 5481
5621 5620 5620 5620 5619 5619 5618 5617 5616 5615 5614 5612 5611 5609 5608 5606 5604 5602 5600 5598 5595 5592 5589 5586 5583 5579 5575 5571 5566 5561 5556 5550 5544 5538 5532 5526 5519 5512 5506 5499 5492 5484 5477 5469
5614 5613 5613 5612 5612 5611 5610 5609 5608 5606 5605 5604 5602 5601 5599 5598 5596 5594 5591 5589 5586 5583 5580 5577 5573 5569 5565 5561 5556 5551 5545 5540 5533 5527 5521 5514 5507 5500 5493 5486 5479 5471 5464 5457
5605 5605 5605 5604 5603 5602 5601 5600 5599 5597 5596 5594 5593 5592 5590 5589 5587 5584 5582 5579 5576 5573 5570 5567 5563 5559 5555 5550 5545 5540 5535 5529 5522 5516 5509 5502 5495 5488 5481 5474 5467 5459 5452 5445
5596 5596 5596 5595 5594 5592 5591 5590 5589 5587 5586 5585 5583 5582 5580 5579 5577 5574 5572 5569 5566 5563 5560 5556 5552 5548 5543 5539 5534 5529 5523 5517 5511 5505 5498 5491 5484 5477 5469 5462 5455 5447 5440 5433
5587 5587 5586 5585 5583 5582 5581 5580 5578 5577 5576 5574 5573 5571 5570 5568 5566 5564 5561 5558 5555 5552 5548 5544 5540 5536 5532 5527 5522 5517 5512 5506 5500 5493 5486 5479 5472 5465 5458 5450 5443 5436 5429 5422
5577 5576 5575 5574 5573 5572 5571 5569 5568 5566 5565 5563 5562 5560 5559 5557 5555 5552 5550 5547 5544 5540 5536 5532 5528 5524 5520 5515 5510 5505 5499 5494 5488 5481 5475 5468 5461 5453 5446 5439 5432 5425 5418 5411
5566 5565 5564 5563 5562 5560 5559 5557 5556 5554 5553 5551 5550 5548 5547 5545 5543 5540 5538 5535 5532 5528 5524 5520 5516 5512 5507 5503 5498 5493 5487 5481 5475 5469 5463 5456 5449 5442 5435 5428 5421 5414 5407 5401
5554 5554 5553 5552 5550 5549 5547 5545 5543 5541 5540 5538 5537 5536 5534 5532 5530 5528 5525 5523 5519 5515 5512 5508 5504 5500 5495 5491 5486 5481 5475 5469 5463 5457 5451 5444 5437 5430 5423 5416 5410 5403 5396 5390
5542 5541 5540 5539 5538 5536 5534 5532 5530 5528 5527 5525 5524 5523 5521 5519 5518 5516 5513 5510 5506 5503 5500 5496 5492 5487 5483 5478 5473 5468 5463 5457 5451 5445 5439 5432 5426 5419 5412 5405 5399 5392 5386 5379
5531 5530 5528 5526 5525 5523 5521 5519 5517 5515 5513 5512 5511 5510 5508 5507 5505 5503 5500 5497 5494 5491 5487 5483 5479 5475 5471 5466 5461 5456 5450 5445 5439 5433 5427 5421 5414 5408 5401 5394 5388 5381 5375 5369
5519 5518 5516 5514 5512 5510 5508 5506 5504 5502 5500 5498 5497 5496 5495 5494 5492 5490 5487 5484 5481 5478 5475 5471 5467 5463 5458 5454 5449 5444 5438 5433 5427 5421 5415 5409 5403 5397 5390 5384 5377 5371 5365 5359
5507 5506 5504 5502 5500 5497 5495 5493 5491 5489 5487 5486 5485 5483 5482 5480 5479 5477 5474 5471 5468 5465 5462 5459 5455 5451 5446 5441 5437 5431 5426 5421 5415 5410 5404 5398 5392 5386 5380 5374 5367 5361 5356 5350
5494 5493 5491 5489 5487 5484 5482 5480 5478 5476 5474 5473 5472 5470 5468 5467 5465 5463 5461 5458 5455 5452 5449 5446 5442 5438 5434 5429 5425 5419 5414 5409 5404 5398 5393 5387 5381 5376 5370 5364 5358 5353 5347 5342